Weather in Ishaki

Russia / Chuvash Republic     55°56′03″N   47°03′57″E
temp.,
°C
wind,
m/s
gust,
m/s
humid.,
%
clouds,
%
prec.,
mm/h
press.,
hPa
HPBL,
m
21 june, mon
mon2100:00+19w34860 0.0 102162
03:00+18wsw22880 0.0 102225
06:00+21wsw34810 0.0 1021146
09:00+25wsw34670 0.0 1021513
12:00+28w45591 0.0 10211226
15:00+28wsw44584 0.0 10211405
18:00+27wsw47721 0.0 1020351
21:00+22wsw47851 0.0 1021110
22 june, tue
tue2200:00+20w34810 0.0 102151
03:00+19wnw22820 0.0 102218
06:00+22w24773 0.0 1022129
09:00+26w336390 0.0 1022483
12:00+29w33548 0.0 10221150
15:00+29wsw335194 0.0 10211521
18:00+26wsw3673100 0.0 1021240
21:00+23wnw367976 0.0 102188
23 june, wed
wed2300:00+21w33824 0.0 102133
03:00+19wnw228922 0.0 102112
06:00+23w35791 0.0 1021147
09:00+27wnw34650 0.0 1021594
12:00+29wnw34530 0.0 10201532
15:00+30wsw44491 0.0 10191457
18:00+24wsw597666 0.2 1018242
21:00+22wsw3586100 1.3 101981
24 june, thu
thu2400:00+21w338689 0.4 101937
03:00+19nw118195 0.4 101911
06:00+23nw127398 0.0 101871
09:00+27wnw2261100 0.0 1018401
12:00+29wnw2255100 0.0 1018941
15:00+30w225297 0.0 1017868
18:00+28wsw2470100 0.1 1016109
21:00+21sse117588 1.7 101612
25 june, fri
fri2500:00+20w238479 1.3 101626
03:00+20sw228819 1.3 101630
06:00+23sw118112 0.0 101589
09:00+28w22650 0.0 1015485
12:00+30wnw34545 0.0 10151045
15:00+32w35440 0.0 10142187
18:00+29wsw47710 0.0 1012250
21:00+22w71087100 1.8 1013201